Weather History for Hurlburt Field, FL

Change the Weather History Date:

Thursday, December 20, 2012

  Actual Average Record
Temperature  
Mean Temperature 60 °F -  
Max Temperature 73 °F 59 °F 73 °F (2012)
Min Temperature 47 °F 40 °F 12 °F (2007)
Degree Days  
Heating Degree Days 4    
Growing Degree Days 10 (Base 50)    
Moisture  
Dew Point 63 °F    
Average Humidity 87    
Maximum Humidity 100    
Minimum Humidity 51    
Precipitation  
Precipitation 0.11 in - - ()
Sea Level Pressure  
Sea Level Pressure 29.90 in    
Wind  
Wind Speed 14 mph (SSW)    
Max Wind Speed 24 mph    
Max Gust Speed 34 mph    
Visibility 9 miles    
Events Rain    
Averages and records for this station are not official NWS values.
T = Trace of Precipitation, MM = Missing Value Source: NWS Daily Summary

Daily Weather History Graph

Daily Weather History Graph

Search for Another Location

Airport:

Trip Planner

Search our weather history database for the weather conditions in past years. The results will help you decide how hot, cold, wet, or windy it might be!

Date:

Astronomy

Dec. 20, 2012 Rise Set
Actual Time 6:39 AM CST 4:50 PM CST
Civil Twilight 6:12 AM CST 5:16 PM CST
Nautical Twilight 5:42 AM CST 5:46 PM CST
Astronomical Twilight 5:13 AM CST 6:16 PM CST
Moon 11:48 AM CST (12/20) No Moon Set
Length of Visible Light 11h 03m
Length of Day
10h 10m
First Quarter, 55% of the Moon is Illuminated
Dec 20
First Quarter
Dec 28
Full
Jan 4
Last Quarter
Jan 11
New
Jan 18
First Quarter

Hourly Weather History & Observations

Time (CST) Temp. Dew Point Humidity Pressure Visibility Wind Dir Wind Speed Gust Speed Precip Events Conditions
12:52 AM 68.0 °F 68.0 °F 100% 29.96 in 10.0 mi SE 11.5 mph - N/A   Overcast
12:55 AM 68.2 °F 67.8 °F 99% 29.96 in 10.0 mi SE 10.4 mph - 0.00 in   Overcast
12:57 AM 68.0 °F 68.0 °F 100% 29.97 in 10.0 mi SE 9.2 mph - N/A   Light Drizzle
1:11 AM 68.0 °F 68.0 °F 100% 29.96 in 10.0 mi SE 12.7 mph - N/A   Light Drizzle
1:55 AM 68.7 °F 68.7 °F 100% 29.95 in 10.0 mi SE 10.4 mph - 0.00 in   Light Drizzle
2:00 AM 68.0 °F 68.0 °F 100% 29.95 in 10.0 mi SE 10.4 mph - N/A   Overcast
2:10 AM 68.0 °F 68.0 °F 100% 29.95 in 10.0 mi SE 9.2 mph - N/A   Light Drizzle
2:18 AM 68.0 °F 68.0 °F 100% 29.95 in 10.0 mi SE 8.1 mph - N/A   Overcast
2:19 AM 68.0 °F 68.0 °F 100% 29.95 in 10.0 mi SE 9.2 mph - N/A   Light Drizzle
2:20 AM 68.0 °F 68.0 °F 100% 29.95 in 10.0 mi SE 10.4 mph - N/A   Overcast
2:24 AM 68.0 °F 68.0 °F 100% 29.95 in 10.0 mi SE 9.2 mph - N/A   Light Drizzle
2:55 AM 69.1 °F 69.1 °F 100% 29.94 in 10.0 mi SE 10.4 mph - 0.00 in   Light Drizzle
3:55 AM 69.4 °F 69.4 °F 100% 29.93 in 10.0 mi SSE 11.5 mph - 0.00 in   Light Drizzle
4:01 AM 69.8 °F 69.8 °F 100% 29.93 in 10.0 mi SSE 12.7 mph - N/A   Overcast
4:04 AM 69.8 °F 69.8 °F 100% 29.93 in 10.0 mi SSE 13.8 mph - N/A   Light Drizzle
4:16 AM 69.8 °F 69.8 °F 100% 29.93 in 10.0 mi SSE 12.7 mph - N/A   Overcast
4:37 AM 69.8 °F 69.8 °F 100% 29.93 in 10.0 mi South 10.4 mph - N/A   Light Drizzle
4:55 AM 69.4 °F 69.4 °F 100% 29.93 in 10.0 mi SSE 11.5 mph - 0.00 in   Light Drizzle
4:58 AM 69.8 °F 69.8 °F 100% 29.93 in 10.0 mi South 10.4 mph - N/A   Overcast
5:00 AM 69.8 °F 69.8 °F 100% 29.93 in 10.0 mi SSE 12.7 mph - N/A   Light Drizzle
5:55 AM 69.8 °F 69.8 °F 100% 29.93 in 10.0 mi South 12.7 mph - 0.00 in   Light Drizzle
6:33 AM 69.8 °F 69.8 °F 100% 29.92 in 10.0 mi SSE 17.3 mph - N/A   Light Drizzle
6:35 AM 69.8 °F 69.8 °F 100% 29.92 in 10.0 mi SSE 17.3 mph - N/A   Light Drizzle
6:55 AM 70.2 °F 70.2 °F 100% 29.92 in 10.0 mi South 13.8 mph - 0.00 in   Light Drizzle
6:56 AM 69.8 °F 69.8 °F 100% 29.92 in 10.0 mi South 13.8 mph - N/A   Light Drizzle
7:46 AM 71.6 °F 71.6 °F 100% 29.91 in 10.0 mi SSE 18.4 mph 24.2 mph N/A   Light Drizzle
7:55 AM 71.1 °F 71.1 °F 100% 29.90 in 10.0 mi SSE 20.7 mph 24.2 mph 0.00 in   Light Drizzle
8:03 AM 71.6 °F 71.6 °F 100% 29.90 in 10.0 mi SSE 19.6 mph 25.3 mph N/A   Light Drizzle
8:37 AM 71.6 °F 71.6 °F 100% 29.89 in 10.0 mi SSE 20.7 mph 26.5 mph N/A   Overcast
8:38 AM 71.6 °F 71.6 °F 100% 29.89 in 10.0 mi SSE 19.6 mph 26.5 mph N/A   Light Drizzle
8:55 AM 71.6 °F 71.6 °F 100% 29.89 in 10.0 mi South 20.7 mph - 0.00 in   Light Drizzle
9:55 AM 71.6 °F 71.6 °F 100% 29.87 in 10.0 mi South 23.0 mph 28.8 mph 0.00 in   Light Drizzle
10:05 AM 71.6 °F 71.6 °F 100% 29.86 in 10.0 mi South 20.7 mph 34.5 mph N/A   Light Drizzle
10:09 AM 71.6 °F 71.6 °F 100% 29.86 in 9.0 mi South 15.0 mph - N/A   Overcast
10:38 AM 73.4 °F 73.4 °F 100% 29.84 in 10.0 mi South 21.9 mph 33.4 mph N/A   Light Drizzle
10:47 AM 71.6 °F 71.6 °F 100% 29.85 in 6.0 mi South 24.2 mph 31.1 mph N/A Rain Light Rain
10:54 AM 71.6 °F 71.6 °F 100% 29.84 in 2.5 mi South 21.9 mph 29.9 mph N/A Rain Rain
10:55 AM 71.8 °F 71.8 °F 100% 29.84 in 2.5 mi SSW 21.9 mph 29.9 mph 0.09 in Rain Rain
10:56 AM 71.6 °F 71.6 °F 100% 29.85 in 2.5 mi SSW 21.9 mph 29.9 mph N/A Rain Rain
10:58 AM 71.6 °F 71.6 °F 100% 29.84 in 2.5 mi South 23.0 mph 29.9 mph N/A Rain Rain
10:59 AM 71.6 °F 71.6 °F 100% 29.84 in 3.0 mi South 21.9 mph 29.9 mph N/A Rain Light Rain
11:01 AM 71.6 °F 71.6 °F 100% 29.84 in 3.0 mi South 21.9 mph 28.8 mph N/A Rain Light Rain
11:08 AM 71.6 °F 71.6 °F 100% 29.84 in 7.0 mi SSW 18.4 mph 26.5 mph N/A Rain Light Rain
11:09 AM 71.6 °F 71.6 °F 100% 29.84 in 7.0 mi South 18.4 mph 26.5 mph N/A Rain Light Rain
11:12 AM 69.8 °F 69.8 °F 100% 29.84 in 8.0 mi SSW 19.6 mph 26.5 mph N/A Rain Light Rain
11:14 AM 69.8 °F 69.8 °F 100% 29.84 in 9.0 mi SSW 17.3 mph 26.5 mph N/A   Light Drizzle
11:19 AM 69.8 °F 69.8 °F 100% 29.83 in 9.0 mi South 18.4 mph 26.5 mph N/A   Overcast
11:55 AM 71.6 °F 71.6 °F 100% 29.81 in 10.0 mi SSW 16.1 mph 25.3 mph 0.02 in   Overcast
12:03 PM 71.6 °F 71.6 °F 100% 29.82 in 10.0 mi SSW 16.1 mph 24.2 mph N/A Rain Light Rain
12:12 PM 71.6 °F 71.6 °F 100% 29.81 in 10.0 mi SW 13.8 mph 24.2 mph N/A   Overcast
12:17 PM 71.6 °F 71.6 °F 100% 29.82 in 10.0 mi SW 15.0 mph 24.2 mph N/A   Overcast
12:24 PM 71.6 °F 71.6 °F 100% 29.82 in 10.0 mi SW 16.1 mph 24.2 mph N/A   Overcast
12:38 PM 71.6 °F 71.6 °F 100% 29.80 in 10.0 mi West 13.8 mph 19.6 mph N/A   Light Drizzle
12:39 PM 71.6 °F 71.6 °F 100% 29.80 in 10.0 mi West 12.7 mph 19.6 mph N/A   Light Drizzle
12:47 PM 71.6 °F 69.8 °F 94% 29.81 in 10.0 mi West 10.4 mph - N/A   Light Drizzle
12:55 PM 71.2 °F 65.8 °F 83% 29.81 in 10.0 mi West 12.7 mph 19.6 mph 0.00 in   Light Drizzle
1:15 PM 69.8 °F 59.0 °F 68% 29.81 in 10.0 mi WNW 10.4 mph 21.9 mph N/A   Partly Cloudy
1:28 PM 69.8 °F 55.4 °F 60% 29.81 in 10.0 mi NW 13.8 mph - N/A   Light Drizzle
1:55 PM 66.9 °F 53.6 °F 62% 29.82 in 10.0 mi NW 12.7 mph 21.9 mph 0.00 in   Light Drizzle
1:56 PM 66.2 °F 53.6 °F 64% 29.82 in 10.0 mi NW 11.5 mph 21.9 mph N/A   Scattered Clouds
1:58 PM 66.2 °F 53.6 °F 64% 29.82 in 10.0 mi WNW 8.1 mph 21.9 mph N/A   Light Drizzle
1:59 PM 68.0 °F 53.6 °F 60% 29.82 in 10.0 mi WNW 10.4 mph 21.9 mph N/A   Scattered Clouds
2:01 PM 68.0 °F 53.6 °F 60% 29.82 in 10.0 mi NW 13.8 mph 21.9 mph N/A   Light Drizzle
2:55 PM 68.4 °F 52.3 °F 57% 29.84 in 10.0 mi NNW 12.7 mph 17.3 mph 0.00 in   Clear
3:20 PM 68.0 °F 50.0 °F 52% 29.85 in 10.0 mi NW 12.7 mph 19.6 mph N/A   Light Drizzle
3:44 PM 66.2 °F 48.2 °F 52% 29.87 in 10.0 mi NW 10.4 mph - N/A   Clear
3:55 PM 64.8 °F 48.0 °F 55% 29.88 in 10.0 mi NW 13.8 mph 21.9 mph 0.00 in   Clear
3:59 PM 64.4 °F 48.2 °F 56% 29.88 in 10.0 mi NW 12.7 mph 21.9 mph N/A   Light Drizzle
4:01 PM 64.4 °F 48.2 °F 56% 29.88 in 10.0 mi NW 13.8 mph 21.9 mph N/A   Clear
4:07 PM 64.4 °F 48.2 °F 56% 29.88 in 10.0 mi NW 11.5 mph 18.4 mph N/A   Light Drizzle
4:30 PM 62.6 °F 46.4 °F 55% 29.90 in 10.0 mi NW 15.0 mph - N/A   Clear
4:55 PM 61.5 °F 45.5 °F 56% 29.92 in 10.0 mi NW 8.1 mph - 0.00 in   Clear
5:55 PM 59.0 °F 40.8 °F 51% 29.98 in 10.0 mi NW 10.4 mph - N/A   Clear
6:55 PM 55.6 °F 38.1 °F 52% 30.03 in 10.0 mi NNW 16.1 mph 24.2 mph N/A   Clear
7:55 PM 52.7 °F 37.4 °F 56% 30.08 in 10.0 mi NW 11.5 mph - N/A   Clear
8:55 PM 50.7 °F 36.3 °F 58% 30.12 in 10.0 mi NNW 11.5 mph 19.6 mph N/A   Clear
9:55 PM 49.1 °F 35.8 °F 60% 30.14 in 10.0 mi NW 13.8 mph 21.9 mph N/A   Clear
10:55 PM 48.4 °F 34.2 °F 58% 30.17 in 10.0 mi NW 9.2 mph 21.9 mph N/A   Clear
11:55 PM 47.3 °F 32.7 °F 57% 30.17 in 10.0 mi NW 17.3 mph 27.6 mph N/A   Clear